Погода в Балчике

Болгария     43°25′33″N   28°09′45″E
темп.,
°C
ветер,
м/с
пор.,
м/с
влажн.,
%
обл.,
%
осадки,
мм/ч
давл.,
гПа
погр.,
м
14 июня, пн
пн1400:00+13ссз81590100 0.1 1012515
03:00+12ссз8158553 0.1 1012527
06:00+11ссз714860 0.0 1012377
09:00+15с712685 0.0 1013837
12:00+19ссз675526 0.0 10131659
15:00+21ссз5646100 0.1 10122117
18:00+19с3656100 0.1 1012740
21:00+16ссз4666100 0.1 1012145
15 июня, вт
вт1500:00+14ссз61077100 0.0 1013288
03:00+13ссз61382100 0.0 1013445
06:00+13ссз71486100 0.1 1013588
09:00+13сз91291100 3.0 1012494
12:00+13зсз101591100 8.4 1012710
15:00+14зсз91593100 18.5 1009604
18:00+16сз71294100 11.5 1008378
21:00+16с11188997 13.9 1008707
16 июня, ср
ср1600:00+16ссз9159370 1.1 1007773
03:00+16ссз11179281 1.1 1007794
06:00+16ссз10159381 0.0 1008740
09:00+17с91386100 0.1 1009849
12:00+21ссв9116988 0.8 10101379
15:00+22ссв5762100 1.8 10111386
18:00+20ссз677567 0.5 1012900
21:00+17сз51091100 0.6 1012283
17 июня, чт
чт1700:00+17сз81395100 7.3 1012544
03:00+17сз101693100 7.8 1012632
06:00+17ссз61196100 0.3 1012496
09:00+17ссз61095100 2.1 1014500
12:00+22с567195 0.9 10151043
15:00+22ссз5675100 5.4 10161021
18:00+21ссз568110 1.9 1016652
21:00+18сз48925 2.1 1016199
18 июня, пт
пт1800:00+17зсз599563 0.0 1016207
03:00+18сз61195100 0.9 1015388
06:00+18ссз5896100 4.3 1014334
09:00+17сз3596100 6.4 1014266
12:00+17сз2496100 8.9 1014260
15:00+21в347769 10.1 1013889
18:00+20в568111 2.1 1014790
21:00+17ссв3491100 2.1 1015155